Torna al catalogo

NOAA 16 DEB

AttivoPO
NORAD 41652·DEBRIS·🇺🇸 United States

Lanciato Sep 21, 2000 da Vandenberg Space Force Base

Loading…

Prossimi Passaggi (prossime 24 ore)

TLE

AggiornatoSource: Space-Track

Epoca: Sep 14, 2026, 13:26 UTC

1 41652U 00055NR  26257.56034563  .00009470  00000-0  24966-2 0  9991
2 41652  98.8787  18.7686 0031856 163.2973 196.9276 14.48895553537969

Traccia NOAA 16 DEB in tempo reale con AllMySat

Download on the App Store